FW1042 Weather Reports


Display with metric or nautical units.
time (UTC)temp
F
wind
direction
speed
MPH
gust
MPH
rain 1hr
in
rain 24hr
in
rain mn
in
humidity
%
barometer
mb
20260504185337 80 147 8.0 18.0 0.00 0.00 0.00 54 1009.7
20260504185135 80 202 8.0 19.0 0.00 0.00 0.00 55 1009.8
20260504184336 80 140 7.0 19.0 0.00 0.00 0.00 54 1009.9
20260504184130 80 240 7.0 18.0 0.00 0.00 0.00 55 1009.8
20260504183336 80 168 8.0 18.0 0.00 0.00 0.00 55 1010.0
20260504182837 80 188 8.0 20.0 0.00 0.00 0.00 54 1010.0
20260504182336 80 139 8.0 21.0 0.00 0.00 0.00 54 1010.0
20260504181836 80 217 7.0 21.0 0.00 0.00 0.00 54 1010.4
20260504181336 80 192 7.0 20.0 0.00 0.00 0.00 55 1010.5
20260504180836 80 190 8.0 20.0 0.00 0.00 0.00 53 1010.6
20260504180336 80 154 7.0 16.0 0.00 0.00 0.00 54 1010.7
20260504175836 80 157 6.0 16.0 0.00 0.00 0.00 54 1010.5
20260504175630 80 225 7.0 21.0 0.00 0.00 0.00 53 1010.6
20260504174838 80 186 7.0 21.0 0.00 0.00 0.00 53 1010.6
20260504174625 79 177 8.0 18.0 0.00 0.00 0.00 54 1010.8
20260504173831 78 192 8.0 18.0 0.00 0.00 0.00 54 1010.9
20260504173331 78 168 7.0 15.0 0.00 0.00 0.00 55 1011.1
20260504172829 78 130 8.0 17.0 0.00 0.00 0.00 54 1011.0
20260504172623 77 193 8.0 19.0 0.00 0.00 0.00 55 1011.1
20260504172126 77 219 9.0 20.0 0.00 0.00 0.00 54 1011.2
20260504171330 77 209 9.0 20.0 0.00 0.00 0.00 53 1011.3
20260504170830 77 171 9.0 18.0 0.00 0.00 0.00 53 1011.4
20260504170330 77 208 8.0 20.0 0.00 0.00 0.00 54 1011.5
20260504160327 75 130 9.0 21.0 0.00 0.00 0.00 54 1012.0
20260504150819 72 203 8.0 19.0 0.00 0.00 0.00 62 1012.8
20260504150319 71 159 8.0 18.0 0.00 0.00 0.00 64 1012.9
20260504141315 68 192 9.0 20.0 0.00 0.00 0.00 68 1012.9
20260504140815 68 188 8.0 18.0 0.00 0.00 0.00 69 1012.8
20260504140313 68 169 8.0 22.0 0.00 0.00 0.00 69 1012.9
20260504130301 65 213 5.0 15.0 0.00 0.00 0.00 74 1013.1
20260504120244 64 177 6.0 15.0 0.00 0.00 0.00 72 1012.6
20260504110525 64 188 5.0 14.0 0.00 0.00 0.00 72 1012.5
20260504100219 64 154 5.0 13.0 0.00 0.00 0.00 69 1012.9
20260504081703 65 219 3.0 12.0 0.00 0.00 0.00 60 1013.3
20260504081202 65 138 4.0 9.0 0.00 0.00 0.00 60 1013.4
20260504080701 65 194 4.0 9.0 0.00 0.00 0.00 60 1013.5
20260504080205 65 147 3.0 8.0 0.00 0.00 0.00 60 1013.6
20260504070147 67 167 4.0 10.0 0.00 0.00 0.00 58 1014.2
20260504050631 69 136 3.0 8.0 0.00 0.00 0.00 54 1015.2
20260504050131 69 185 3.0 7.0 0.00 0.00 0.00 54 1015.3
20260504045630 69 130 3.0 7.0 0.00 0.00 0.00 53 1015.3
20260504045426 69 208 3.0 7.0 0.00 0.00 0.00 53 1015.4
20260504044629 69 173 3.0 9.0 0.00 0.00 0.00 52 1015.4
20260504044126 69 200 4.0 10.0 0.00 0.00 0.00 51 1015.5
20260504043626 69 158 3.0 10.0 0.00 0.00 0.00 51 1015.6
20260504043127 70 191 3.0 11.0 0.00 0.00 0.00 50 1015.7
20260504042627 70 165 3.0 11.0 0.00 0.00 0.00 50 1015.8
20260504042127 70 227 4.0 10.0 0.00 0.00 0.00 50 1015.6
20260504041626 70 146 4.0 10.0 0.00 0.00 0.00 49 1015.7
20260504041126 70 189 4.0 10.0 0.00 0.00 0.00 49 1015.7
20260504040629 70 196 4.0 9.0 0.00 0.00 0.00 49 1015.7
20260504040126 71 189 4.0 9.0 0.00 0.00 0.00 49 1015.6
20260504035627 71 118 4.0 9.0 0.00 0.00 0.00 49 1015.6
20260504035126 71 197 4.0 9.0 0.00 0.00 0.00 49 1015.6
20260504034627 71 171 4.0 9.0 0.00 0.00 0.00 49 1015.7
20260504034126 71 212 3.0 7.0 0.00 0.00 0.00 48 1015.6
20260504033626 71 178 3.0 7.0 0.00 0.00 0.00 48 1015.6
20260504033126 71 216 4.0 10.0 0.00 0.00 0.00 48 1015.6
20260504032626 71 172 4.0 10.0 0.00 0.00 0.00 48 1015.6
20260504032126 71 213 3.0 10.0 0.00 0.00 0.00 48 1015.6
20260504031624 72 146 3.0 9.0 0.00 0.00 0.00 48 1015.6
20260504031124 72 204 3.0 9.0 0.00 0.00 0.00 47 1015.6
20260504030919 72 186 3.0 9.0 0.00 0.00 0.00 47 1015.5
20260504030125 72 140 4.0 10.0 0.00 0.00 0.00 47 1015.5
20260504025624 72 144 4.0 10.0 0.00 0.00 0.00 46 1015.4
20260504025125 72 179 3.0 8.0 0.00 0.00 0.00 46 1015.5
20260504024622 73 186 3.0 8.0 0.00 0.00 0.00 46 1015.4
20260504024123 73 171 3.0 8.0 0.00 0.00 0.00 45 1015.3
20260504023622 73 206 3.0 9.0 0.00 0.00 0.00 45 1015.4
20260504023121 73 180 4.0 9.0 0.00 0.00 0.00 44 1015.5
20260504022623 73 184 4.0 9.0 0.00 0.00 0.00 44 1015.5
20260504022122 73 131 4.0 12.0 0.00 0.00 0.00 44 1015.4
20260504021621 73 186 4.0 12.0 0.00 0.00 0.00 43 1015.4
20260504021119 74 192 4.0 11.0 0.00 0.00 0.00 43 1015.4
20260504020618 74 182 4.0 10.0 0.00 0.00 0.00 42 1015.4
20260504020118 74 172 4.0 9.0 0.00 0.00 0.00 42 1015.4
20260504015614 74 175 4.0 10.0 0.00 0.00 0.00 41 1015.2
20260504015112 74 184 4.0 10.0 0.00 0.00 0.00 41 1015.2
20260504014614 74 197 4.0 9.0 0.00 0.00 0.00 41 1015.2
20260504014110 75 169 4.0 8.0 0.00 0.00 0.00 40 1015.2
20260504013909 75 185 4.0 9.0 0.00 0.00 0.00 39 1015.1
20260504013111 75 150 4.0 11.0 0.00 0.00 0.00 39 1015.1
20260504012610 75 122 4.0 11.0 0.00 0.00 0.00 39 1015.0
20260504012109 75 206 3.0 8.0 0.00 0.00 0.00 39 1015.1
20260504011608 76 171 4.0 11.0 0.00 0.00 0.00 39 1015.1
20260504011108 76 200 4.0 11.0 0.00 0.00 0.00 39 1015.0
20260504010924 76 180 4.0 9.0 0.00 0.00 0.00 39 1015.0
20260504010501 76 138 4.0 11.0 0.00 0.00 0.00 38 1014.9
20260504010457 76 161 4.0 11.0 0.00 0.00 0.00 38 1014.8
20260504005105 76 163 5.0 10.0 0.00 0.00 0.00 38 1014.9
20260504004604 77 215 6.0 16.0 0.00 0.00 0.00 38 1015.0
20260504004104 77 175 6.0 16.0 0.00 0.00 0.00 38 1015.0
20260504003606 77 182 5.0 12.0 0.00 0.00 0.00 37 1015.0
20260504003355 78 126 5.0 12.0 0.00 0.00 0.00 37 1015.0
20260504002604 78 190 4.0 13.0 0.00 0.00 0.00 37 1014.9
20260504002104 78 147 5.0 13.0 0.00 0.00 0.00 37 1015.0
20260504001604 79 184 5.0 12.0 0.00 0.00 0.00 36 1015.0
20260504001105 79 175 5.0 12.0 0.00 0.00 0.00 35 1015.0
20260504000907 80 244 4.0 11.0 0.00 0.00 0.00 33 1014.9
20260504000105 80 164 4.0 10.0 0.00 0.00 0.00 32 1015.0
20260503235603 81 200 4.0 10.0 0.00 0.00 0.00 32 1015.1
20260503235103 81 248 5.0 12.0 0.00 0.00 0.00 33 1015.2
20260503234602 81 178 6.0 15.0 0.00 0.00 0.00 33 1015.1
20260503234103 82 197 6.0 15.0 0.00 0.00 0.00 33 1015.2
20260503233604 82 183 5.0 12.0 0.00 0.00 0.00 33 1015.3
20260503233104 82 195 5.0 12.0 0.00 0.00 0.00 32 1015.3
20260503232604 82 204 5.0 12.0 0.00 0.00 0.00 32 1015.2
20260503232348 82 126 4.0 11.0 0.00 0.00 0.00 33 1015.4
20260503231558 82 183 5.0 11.0 0.00 0.00 0.00 33 1015.3
20260503231352 82 154 5.0 11.0 0.00 0.00 0.00 33 1015.3
20260503230559 83 214 5.0 11.0 0.00 0.00 0.00 31 1015.4
20260503230059 83 208 4.0 10.0 0.00 0.00 0.00 31 1015.4
20260503225558 83 122 4.0 11.0 0.00 0.00 0.00 31 1015.4
20260503225058 83 185 5.0 12.0 0.00 0.00 0.00 31 1015.4
20260503224558 83 207 5.0 12.0 0.00 0.00 0.00 31 1015.5
20260503224057 83 219 5.0 14.0 0.00 0.00 0.00 31 1015.5
20260503223557 84 215 4.0 14.0 0.00 0.00 0.00 31 1015.5
20260503223058 83 155 4.0 10.0 0.00 0.00 0.00 31 1015.5
20260503222557 84 162 4.0 10.0 0.00 0.00 0.00 30 1015.6
20260503222057 83 107 6.0 15.0 0.00 0.00 0.00 31 1015.6
20260503221556 83 159 7.0 15.0 0.00 0.00 0.00 30 1015.7
20260503221057 83 189 6.0 18.0 0.00 0.00 0.00 30 1015.7
20260503220702 84 145 5.0 15.0 0.00 0.00 0.00 31 1015.7
20260503220640 84 173 4.0 18.0 0.00 0.00 0.00 31 1015.7
20260503215556 83 164 5.0 15.0 0.00 0.00 0.00 32 1015.8
20260503215056 83 196 5.0 14.0 0.00 0.00 0.00 30 1015.9
20260503214629 83 184 6.0 14.0 0.00 0.00 0.00 29 1016.0
20260503213556 84 280 5.0 16.0 0.00 0.00 0.00 31 1016.0
20260503213057 84 192 5.0 16.0 0.00 0.00 0.00 31 1016.4
20260503212556 84 188 6.0 13.0 0.00 0.00 0.00 33 1016.3
20260503212050 83 216 6.0 17.0 0.00 0.00 0.00 32 1016.3
20260503211622 84 223 5.0 17.0 0.00 0.00 0.00 32 1016.5
20260503210840 84 188 5.0 11.0 0.00 0.00 0.00 32 1016.8
20260503210050 84 138 6.0 12.0 0.00 0.00 0.00 31 1016.8
20260503205550 84 200 6.0 13.0 0.00 0.00 0.00 31 1017.0
20260503205050 84 159 5.0 13.0 0.00 0.00 0.00 30 1017.1
20260503204550 84 171 6.0 13.0 0.00 0.00 0.00 32 1017.0
20260503204049 84 172 5.0 14.0 0.00 0.00 0.00 32 1017.2
20260503203551 84 155 4.0 14.0 0.00 0.00 0.00 31 1017.3
20260503203335 84 255 4.0 10.0 0.00 0.00 0.00 33 1017.3
20260503202548 83 189 4.0 12.0 0.00 0.00 0.00 36 1017.3
20260503202151 84 209 3.0 9.0 0.00 0.00 0.00 34 1017.5
20260503202120 84 107 4.0 12.0 0.00 0.00 0.00 33 1017.5
20260503201048 83 269 3.0 9.0 0.00 0.00 0.00 35 1017.6
20260503200548 84 246 3.0 7.0 0.00 0.00 0.00 34 1017.6
20260503200052 83 176 3.0 9.0 0.00 0.00 0.00 33 1017.7
20260503195548 83 157 4.0 12.0 0.00 0.00 0.00 32 1017.8
20260503195048 83 18 5.0 12.0 0.00 0.00 0.00 34 1018.0
20260503194548 83 142 4.0 13.0 0.00 0.00 0.00 33 1018.0
20260503194048 83 186 4.0 13.0 0.00 0.00 0.00 33 1018.1
20260503193547 83 160 4.0 9.0 0.00 0.00 0.00 34 1018.1
20260503193048 83 211 4.0 11.0 0.00 0.00 0.00 36 1018.2
20260503192549 83 218 4.0 11.0 0.00 0.00 0.00 35 1018.3
20260503192048 83 191 4.0 10.0 0.00 0.00 0.00 34 1018.5
20260503191548 83 153 4.0 10.0 0.00 0.00 0.00 36 1018.4
20260503191048 83 252 3.0 9.0 0.00 0.00 0.00 36 1018.7
20260503190548 83 175 4.0 9.0 0.00 0.00 0.00 36 1018.6
20260503190048 83 277 4.0 13.0 0.00 0.00 0.00 37 1018.6
20260503185548 82 152 4.0 13.0 0.00 0.00 0.00 36 1018.7